Date_and_time,latitude,longitude,wind_speed,RelWindDirFrom,WindDirFrom,air_pressure,air_temperature,relative_humidity,Temp,platform_speed_wrt_ground,air_pressure_at_mean_sea_level,platform_orientation
2018-07-30 23:40,50.6304516666667,-96.98077,5.4,7.8,234,986.97,28.1,33,21.54,0.0,1012.10,90.0
2018-07-30 23:50,50.6304516666667,-96.980765,5.3,7.8,239,986.86,28.0,32,21.49,0.0,1012.00,90.0
2018-07-31 00:00,50.63045,-96.980765,4.2,6.3,240,986.74,27.8,34,21.45,0.0,1011.89,270.0
2018-07-31 00:10,50.6304483333333,-96.98076,3.4,4.7,232,986.68,27.7,35,21.42,0.0,1011.83,270.0
2018-07-31 00:20,50.6304483333333,-96.98076,3.8,5.2,215,986.61,27.6,36,21.38,0.0,1011.77,270.0
2018-07-31 00:30,50.6304483333333,-96.98076,4.0,5.7,207,986.52,27.4,37,21.34,0.0,1011.69,270.0
2018-07-31 00:40,50.6304483333333,-96.9807433333333,3.7,5.3,211,986.42,27.5,37,21.32,0.0,1011.58,270.0
2018-07-31 00:50,50.6304566666667,-96.980755,3.6,4.6,206,986.31,27.6,36,21.31,0.0,1011.46,270.0
2018-07-31 01:00,50.6304666666667,-96.9807716666667,3.7,4.9,203,986.19,28.0,35,21.34,0.0,1011.34,351.6
2018-07-31 01:10,50.6304666666667,-96.9807633333333,3.0,4.4,203,986.06,28.2,35,21.33,0.0,1011.22,351.6
2018-07-31 01:20,50.63046,-96.98076,3.3,6.2,205,985.89,28.2,35,21.31,0.0,1011.06,351.6
2018-07-31 01:30,50.6304566666667,-96.9807583333333,4.4,5.7,208,985.83,27.8,34,21.29,0.0,1011.02,351.6
2018-07-31 01:40,50.630455,-96.9807566666667,4.2,5.3,203,985.71,27.4,35,21.28,0.0,1010.93,351.6
2018-07-31 01:50,50.6304533333333,-96.9807566666667,3.7,4.6,204,985.68,27.0,35,21.28,0.0,1010.92,351.6
2018-07-31 02:00,50.6304533333333,-96.9807583333333,4.1,5.2,199,985.68,26.7,35,21.27,0.0,1010.94,38.0
2018-07-31 02:10,50.6304333333333,-96.980755,4.7,5.9,195,985.61,26.2,38,21.26,0.0,1010.90,38.0
2018-07-31 02:20,50.630435,-96.9807616666667,5.2,6.1,187,985.58,25.3,43,21.26,0.0,1010.91,38.0
2018-07-31 02:30,50.6304583333333,-96.9807716666667,5.0,5.8,192,985.50,24.9,44,21.26,0.0,1010.84,38.0
2018-07-31 02:40,50.6304533333333,-96.980765,4.7,5.7,196,985.51,24.9,43,21.26,0.0,1010.85,38.0
2018-07-31 02:50,50.6304583333333,-96.98078,5.3,6.6,190,985.53,24.5,47,21.26,0.0,1010.87,38.0
2018-07-31 03:00,50.630455,-96.9807716666667,6.3,8.3,196,985.51,24.3,45,21.25,0.0,1010.85,270.0
2018-07-31 03:10,50.6304533333333,-96.9807683333333,6.2,8.4,194,985.47,24.3,46,21.25,0.0,1010.80,270.0
2018-07-31 03:20,50.6304566666667,-96.9807583333333,6.2,7.9,196,985.41,24.0,46,21.27,0.0,1010.77,270.0
2018-07-31 03:30,50.6304566666667,-96.9807616666667,6.5,8.6,198,985.37,23.9,45,21.28,0.0,1010.75,270.0
2018-07-31 03:40,50.6304566666667,-96.9807616666667,6.8,8.9,201,985.29,24.0,44,21.28,0.0,1010.68,270.0
2018-07-31 03:50,50.6304533333333,-96.9807583333333,8.1,10.8,202,985.08,24.0,43,21.30,0.0,1010.48,270.0
2018-07-31 04:00,50.6304533333333,-96.98076,8.5,11.1,204,984.92,23.9,43,21.32,0.0,1010.34,176.8
2018-07-31 04:10,50.6304516666667,-96.98076,8.2,10.5,205,984.93,23.7,43,21.38,0.0,1010.40,176.8
2018-07-31 04:20,50.6304516666667,-96.9807566666667,8.4,11.5,206,984.94,23.6,43,21.50,0.0,1010.43,176.8
2018-07-31 04:30,50.6304516666667,-96.9807566666667,8.1,10.2,207,984.90,23.5,43,21.46,0.0,1010.39,176.8
2018-07-31 04:40,50.6304516666667,-96.9807566666667,8.1,10.6,207,984.89,23.3,44,21.43,0.0,1010.41,176.8
2018-07-31 04:50,50.6304516666667,-96.9807566666667,7.7,9.3,206,984.80,23.0,45,21.48,0.0,1010.34,176.8
2018-07-31 05:00,50.6304516666667,-96.9807566666667,8.1,10.2,204,984.71,22.7,46,21.51,0.0,1010.25,90.0
2018-07-31 05:10,50.6304516666667,-96.9807566666667,9.0,11.3,204,984.65,22.7,46,21.56,0.0,1010.21,90.0
2018-07-31 05:20,50.6304516666667,-96.9807566666667,8.8,11.3,204,984.45,22.7,46,21.57,0.0,1010.01,90.0
2018-07-31 05:30,50.63045,-96.9807566666667,8.9,12.0,196,984.27,22.6,48,21.66,0.0,1009.83,90.0
2018-07-31 05:40,50.63045,-96.9807566666667,9.3,11.5,198,984.23,22.1,50,21.64,0.0,1009.81,90.0
2018-07-31 05:50,50.63045,-96.9807583333333,9.4,12.7,202,984.24,21.8,51,21.66,0.0,1009.83,90.0
2018-07-31 06:00,50.6304516666667,-96.9807583333333,9.3,11.7,203,984.23,21.6,52,21.66,0.0,1009.84,90.0
2018-07-31 06:10,50.63045,-96.9807583333333,9.1,12.3,204,984.15,21.4,53,21.67,0.0,1009.77,90.0
2018-07-31 06:20,50.63045,-96.9807583333333,9.1,11.6,205,984.08,21.2,54,21.89,0.0,1009.71,90.0
2018-07-31 06:30,50.63045,-96.9807583333333,9.0,11.7,206,983.93,21.0,55,22.08,0.0,1009.58,90.0
2018-07-31 06:40,50.6304616666667,-96.9807583333333,8.5,10.8,209,983.78,20.6,57,22.07,0.0,1009.46,90.0
2018-07-31 06:50,50.6304383333333,-96.9807533333333,9.0,11.4,208,983.57,20.3,58,22.06,0.0,1009.26,90.0
2018-07-31 07:00,50.63044,-96.9807583333333,8.6,11.0,203,983.38,20.1,60,22.04,0.0,1009.08,142.0
2018-07-31 07:10,50.6304416666667,-96.9807583333333,8.0,10.5,210,983.45,20.0,60,22.07,0.0,1009.16,142.0
2018-07-31 07:20,50.63044,-96.98076,7.7,10.2,210,983.44,20.0,60,22.06,0.0,1009.16,142.0
2018-07-31 07:30,50.6304416666667,-96.9807616666667,7.3,9.4,210,983.40,20.0,61,22.02,0.0,1009.13,142.0
2018-07-31 07:40,50.6304433333333,-96.980775,7.4,9.6,208,983.30,20.1,60,22.01,0.0,1009.04,142.0
2018-07-31 07:50,50.630475,-96.98076,6.8,9.0,212,983.30,20.1,60,22.00,0.0,1009.05,142.0
2018-07-31 08:00,50.63045,-96.98076,9.4,17.6,302,983.99,20.8,59,21.99,0.0,1009.73,0.0
2018-07-31 08:10,50.6304466666667,-96.9807633333333,5.6,14.0,288,984.23,21.9,57,21.94,0.0,1009.94,0.0
2018-07-31 08:20,50.6304516666667,-96.9807783333333,5.1,7.8,309,984.31,21.9,58,22.04,0.0,1010.03,0.0
2018-07-31 08:30,50.6304516666667,-96.9807666666667,8.1,13.5,339,984.47,21.8,61,22.07,0.0,1010.22,0.0
2018-07-31 08:40,50.6304616666667,-96.98078,8.4,13.4,349,984.45,21.5,64,21.90,0.0,1010.22,0.0
2018-07-31 08:50,50.6304583333333,-96.98077,7.1,9.8,355,984.38,21.3,66,21.79,0.0,1010.16,0.0
2018-07-31 09:00,50.6304566666667,-96.9807666666667,5.5,8.1,333,984.62,21.1,67,21.85,0.0,1010.43,270.0
2018-07-31 09:10,50.6304533333333,-96.9807666666667,3.2,7.1,325,984.90,20.8,67,21.82,0.0,1010.73,270.0
2018-07-31 09:20,50.6304533333333,-96.980765,2.2,4.2,313,984.87,20.7,67,21.96,0.0,1010.70,270.0
2018-07-31 09:30,50.630455,-96.980765,1.8,3.1,279,984.75,20.4,69,22.10,0.0,1010.58,270.0
2018-07-31 09:40,50.6304383333333,-96.98076,2.6,4.4,297,984.65,20.2,70,21.75,0.0,1010.49,270.0
2018-07-31 09:50,50.6304566666667,-96.980755,1.5,3.2,285,984.62,20.0,72,21.82,0.0,1010.44,270.0
2018-07-31 10:00,50.6304583333333,-96.9807533333333,0.2,1.5,183,984.43,19.7,74,21.97,0.0,1010.21,23.5
2018-07-31 10:10,50.63046,-96.9807566666667,2.7,4.7,113,984.01,20.2,76,21.73,0.0,1009.75,23.5
2018-07-31 10:20,50.6304583333333,-96.9807583333333,5.8,7.9,122,983.55,20.4,79,21.52,0.0,1009.28,23.5
2018-07-31 10:30,50.6304266666667,-96.9807533333333,7.4,9.3,118,983.25,20.7,79,21.39,0.0,1008.97,23.5
2018-07-31 10:40,50.6304316666667,-96.9807516666667,3.9,6.9,99,983.80,20.7,80,21.55,0.0,1009.55,23.5
2018-07-31 10:50,50.630455,-96.9807583333333,2.1,6.5,200,984.53,20.4,79,21.79,0.0,1010.32,23.5
2018-07-31 11:00,50.6304533333333,-96.9807583333333,4.8,10.5,261,984.86,19.9,79,21.68,0.0,1010.69,90.0
2018-07-31 11:10,50.6304533333333,-96.9807616666667,4.6,7.5,270,985.13,19.6,79,21.75,0.0,1010.99,90.0
2018-07-31 11:20,50.6304516666667,-96.9807616666667,4.6,8.2,266,985.10,19.0,83,21.86,0.0,1010.99,90.0
2018-07-31 11:30,50.6304616666667,-96.9807683333333,3.8,6.8,281,984.82,18.8,86,21.74,0.0,1010.72,90.0
2018-07-31 11:40,50.630455,-96.980765,4.6,7.5,268,984.79,18.6,88,21.53,0.0,1010.72,90.0
2018-07-31 11:50,50.6304566666667,-96.9807683333333,5.2,7.5,236,984.88,18.1,94,21.45,0.0,1010.85,90.0
2018-07-31 12:00,50.630455,-96.9807666666667,4.0,6.4,232,984.65,17.9,95,21.42,0.0,1010.59,0.0
2018-07-31 12:10,50.6304683333333,-96.9807633333333,3.3,4.8,223,984.48,17.9,97,21.58,0.0,1010.41,0.0
2018-07-31 12:20,50.6304566666667,-96.98076,5.0,7.0,224,984.68,17.8,99,21.80,0.0,1010.60,0.0
2018-07-31 12:30,50.63045,-96.9807516666667,5.8,7.5,232,984.86,17.7,99,21.83,0.0,1010.80,0.0
2018-07-31 12:40,50.6304466666667,-96.9807516666667,5.7,8.1,236,984.87,17.8,99,21.76,0.0,1010.82,0.0
2018-07-31 12:50,50.630445,-96.9807533333333,5.2,8.6,240,984.94,17.8,99,21.99,0.0,1010.90,0.0
2018-07-31 13:00,50.630445,-96.980755,5.2,9.1,231,984.87,17.8,100,21.94,0.0,1010.85,360.0
2018-07-31 13:10,50.629475,-96.98104,6.3,9.5,245,984.91,18.1,99,21.66,0.4,1010.91,360.0
2018-07-31 13:20,50.6350066666667,-96.9521833333333,3.1,10.6,314,984.98,18.4,98,21.41,6.9,1010.97,360.0
2018-07-31 13:30,50.65042,-96.9102316666667,5.7,7.9,347,985.00,18.5,97,21.62,11.1,1011.00,360.0
2018-07-31 13:40,50.6660866666667,-96.8686916666667,6.6,8.9,347,985.10,18.7,96,21.98,11.0,1011.11,360.0
2018-07-31 13:50,50.6793116666667,-96.8373566666667,8.3,13.9,323,985.13,18.8,96,21.98,8.6,1011.15,360.0
2018-07-31 14:00,50.6828583333333,-96.8279116666667,10.0,13.3,293,985.05,18.8,97,22.02,2.5,1011.07,61.5
2018-07-31 14:10,50.6852883333333,-96.8187866666667,11.4,14.1,306,984.98,18.8,96,22.03,2.3,1010.99,61.5
2018-07-31 14:20,50.6867933333333,-96.80947,12.0,17.1,321,984.98,18.8,96,22.02,2.2,1011.00,61.5
2018-07-31 14:30,50.6944683333333,-96.7925683333333,13.4,18.8,340,985.06,18.9,96,22.01,4.7,1011.08,61.5
2018-07-31 14:40,50.6955583333333,-96.790345,15.7,19.2,323,984.74,19.1,93,21.95,0.6,1010.73,61.5
2018-07-31 14:50,50.6955383333333,-96.7904066666667,14.4,19.2,330,984.77,19.2,93,21.94,0.0,1010.76,61.5
2018-07-31 15:00,50.69557,-96.7903266666667,15.5,19.9,333,984.74,19.3,93,21.93,0.0,1010.72,61.6
2018-07-31 15:10,50.6955216666667,-96.790405,18.4,23.2,344,984.69,19.4,90,21.92,0.0,1010.65,61.6
2018-07-31 15:20,50.7002283333333,-96.7941916666667,22.8,31.6,342,984.52,19.2,90,21.91,1.9,1010.47,61.6
2018-07-31 15:30,50.7256433333333,-96.8017733333333,28.7,33.6,349,983.82,19.0,91,21.91,9.3,1009.76,61.6
2018-07-31 15:40,50.7370933333333,-96.8039783333333,23.2,27.8,354,984.58,18.9,91,21.93,4.2,1010.54,61.6
2018-07-31 15:50,50.7622366666667,-96.8119233333333,29.9,34.6,356,983.91,18.7,90,21.94,9.2,1009.86,61.6
2018-07-31 16:00,50.7858933333333,-96.8191316666667,29.7,35.0,356,984.06,18.4,88,21.88,8.7,1010.02,33.3
2018-07-31 16:10,50.8145566666667,-96.8274133333333,30.2,35.1,359,984.32,18.0,93,21.86,10.5,1010.31,33.3
2018-07-31 16:20,50.8431666666667,-96.8367766666667,30.8,34.8,357,984.34,17.9,94,21.85,10.5,1010.33,33.3
2018-07-31 16:30,50.87195,-96.8451516666667,30.8,35.0,1,984.75,17.4,97,21.81,10.5,1010.77,33.3
2018-07-31 16:40,50.90093,-96.8530066666667,30.1,33.3,3,985.04,17.5,90,21.77,10.6,1011.06,33.3
2018-07-31 16:50,50.9297566666667,-96.8625416666667,30.5,35.1,6,985.48,17.4,88,21.73,10.6,1011.51,33.3
2018-07-31 17:00,50.94289,-96.8659616666667,23.7,33.5,2,985.96,17.4,87,21.66,4.8,1011.99,354.7
2018-07-31 17:10,50.9467966666667,-96.8673466666667,22.9,32.9,4,986.67,17.6,86,21.59,1.4,1012.72,354.7
2018-07-31 17:20,50.9740883333333,-96.8752133333333,31.1,37.3,10,986.08,17.1,87,21.62,10.0,1012.15,354.7
2018-07-31 17:30,50.9753766666667,-96.8759983333333,20.5,25.2,13,986.97,17.2,84,21.72,0.5,1013.07,354.7
2018-07-31 17:40,50.97539,-96.875945,20.5,25.4,8,987.08,17.1,85,21.73,0.0,1013.19,354.7
2018-07-31 17:50,50.975405,-96.8761183333333,18.4,24.1,13,987.40,17.2,82,21.74,0.0,1013.53,354.7
2018-07-31 18:00,50.9764266666667,-96.8785566666667,19.9,25.7,15,987.44,17.1,82,21.74,0.7,1013.58,348.8
2018-07-31 18:10,50.966595,-96.8823733333333,15.3,22.2,23,988.17,17.3,80,21.75,3.6,1014.33,348.8
2018-07-31 18:20,50.95794,-96.88516,16.9,22.8,21,988.15,17.3,77,21.72,3.2,1014.33,348.8
2018-07-31 18:30,50.9489833333333,-96.8875816666667,18.3,23.1,18,988.22,17.4,77,21.65,3.3,1014.40,348.8
2018-07-31 18:40,50.93864,-96.8903183333333,17.6,21.8,19,988.46,17.2,78,21.62,3.8,1014.66,348.8
2018-07-31 18:50,50.9113416666667,-96.89591,9.0,15.3,358,988.85,19.4,70,21.56,9.9,1014.96,348.8
2018-07-31 19:00,50.8807466666667,-96.9017433333333,9.1,15.0,1,988.95,19.5,71,21.65,11.1,1015.05,331.2
2018-07-31 19:10,50.8499583333333,-96.904625,10.8,15.3,10,988.97,19.2,69,21.70,11.1,1015.10,331.2
2018-07-31 19:20,50.81883,-96.911,12.0,16.2,358,988.97,22.2,58,21.66,11.3,1014.96,331.2
2018-07-31 19:30,50.7877883333333,-96.9175933333333,9.7,15.4,356,989.04,22.7,60,21.63,11.3,1015.03,331.2
2018-07-31 19:40,50.75671,-96.9247833333333,9.0,13.1,4,989.11,20.9,62,21.61,11.3,1015.17,331.2
2018-07-31 19:50,50.725655,-96.9246666666667,9.9,15.8,23,989.22,19.4,69,21.62,11.2,1015.35,331.2
2018-07-31 20:00,50.694485,-96.9201566666667,9.3,13.7,38,989.34,17.4,77,21.67,11.3,1015.56,187.9
2018-07-31 20:10,50.6639516666667,-96.9177,9.9,15.3,34,989.46,17.5,73,21.73,11.0,1015.67,187.9
2018-07-31 20:20,50.638495,-96.9459066666667,8.4,12.6,358,989.49,19.3,68,21.74,11.2,1015.62,187.9
2018-07-31 20:30,50.6275933333333,-96.97929,15.9,24.8,359,989.19,19.4,68,21.49,8.6,1015.32,187.9
2018-07-31 20:40,50.63048,-96.9808033333333,20.4,26.0,18,988.86,17.9,74,21.22,1.1,1014.95,187.9
2018-07-31 20:50,50.63046,-96.9807733333333,19.4,23.8,6,989.19,17.8,73,21.28,0.0,1015.29,187.9
2018-07-31 21:00,50.63046,-96.9807733333333,19.2,23.6,3,989.31,17.9,73,21.30,0.0,1015.42,190.6
2018-07-31 21:10,50.63046,-96.9807783333333,19.0,24.5,10,989.45,17.9,74,21.32,0.0,1015.43,190.6
2018-07-31 21:20,50.6304583333333,-96.9807816666667,18.8,22.9,11,989.54,17.9,73,21.30,0.0,1015.50,190.6
2018-07-31 21:30,50.6304466666667,-96.980805,19.2,24.9,360,989.52,17.8,75,21.29,0.0,1015.57,190.6
2018-07-31 21:40,50.6304483333333,-96.9807683333333,20.1,25.6,10,989.55,17.7,74,21.29,0.0,1015.67,190.6
2018-07-31 21:50,50.630445,-96.9807833333333,19.5,23.4,6,989.67,17.7,75,21.29,0.0,1015.88,190.6
2018-07-31 22:00,50.63045,-96.9807833333333,18.9,22.6,8,989.76,17.7,74,21.26,0.0,1015.97,191.3
2018-07-31 22:10,50.6304533333333,-96.9807783333333,20.0,24.9,7,989.84,17.6,73,21.26,0.0,1015.97,191.3
2018-07-31 22:20,50.6304566666667,-96.9807783333333,19.9,23.7,13,989.99,17.7,72,21.26,0.0,1016.12,191.3
2018-07-31 22:30,50.6304583333333,-96.98078,19.4,23.9,17,990.14,18.0,68,21.23,0.0,1016.33,191.3
2018-07-31 22:40,50.6304583333333,-96.9807816666667,18.7,22.8,7,990.24,18.1,70,21.23,0.0,1016.43,191.3
2018-07-31 22:50,50.6304583333333,-96.9807816666667,18.9,23.4,8,990.29,17.9,70,21.23,0.0,1016.49,191.3
2018-07-31 23:00,50.63046,-96.98078,20.5,25.0,22,990.24,17.9,72,21.21,0.0,1016.43,211.0
2018-07-31 23:10,50.63046,-96.98078,18.0,22.0,17,990.41,17.8,70,21.20,0.0,1016.61,211.0
2018-07-31 23:20,50.63046,-96.9807783333333,18.7,23.6,19,990.41,18.0,70,21.20,0.0,1016.61,211.0
2018-07-31 23:30,50.63046,-96.9807783333333,18.4,22.8,15,990.53,17.9,68,21.21,0.0,1016.74,211.0
2018-07-31 23:40,50.63046,-96.9807783333333,16.7,22.5,11,990.64,17.9,69,21.24,0.0,1016.86,211.0
